Location: Kampung Segan
(3.1399°N, 113.1002°E)
Time: 12:26:28
(UTC+00:00)

MOS 1-B Rocket - Pass Details

Date: 05 August 2024
Orbit: 891 x 1604 km, 99.0° (Epoch: 07 September)

Event Time Altitude Azimuth Distance (km) Brightness Sun altitude
Exits shadow 12:52:51 53° 222° (SW) 1,185 4.4 -32.0°
Maximum altitude 12:53:46 59° 258° (WSW) 1,135 4.4 -32.2°
Drops below altitude 10° 13:00:12 10° 337° (NNW) 2,958 7.0 -33.7°
Sets 13:02:59 0° 340° (NNW) 4,016 7.7 -34.4°
